�������l�o���
Date,Time,MP-1(��Sv/h),MP-2(��Sv/h),MP-3(��Sv/h),MP-4(��Sv/h),MP-5(��Sv/h),MP-6(��Sv/h),MP-7(��Sv/h),MP-8(��Sv/h),����,����(m/s),���J
2020/09/10,00:00,0.689,0.982,0.624,1.207,0.875,0.393,0.686,0.645,��,0.9,��
2020/09/10,00:10,0.691,0.986,0.627,1.206,0.874,0.393,0.686,0.644,�쓌,0.6,��
2020/09/10,00:20,0.689,0.986,0.625,1.206,0.877,0.394,0.686,0.643,�쓌,0.8,��
2020/09/10,00:30,0.691,0.984,0.627,1.205,0.874,0.394,0.685,0.642,��쓌,0.6,��
2020/09/10,00:40,0.691,0.985,0.625,1.204,0.876,0.393,0.686,0.645,-,CALM,��
2020/09/10,00:50,0.691,0.986,0.625,1.204,0.874,0.393,0.685,0.641,-,CALM,��
2020/09/10,01:00,0.693,0.985,0.626,1.208,0.876,0.393,0.685,0.643,-,CALM,��
2020/09/10,01:10,0.692,0.985,0.624,1.205,0.876,0.393,0.686,0.643,�k�k��,0.6,��
2020/09/10,01:20,0.692,0.986,0.626,1.207,0.874,0.393,0.686,0.643,-,CALM,��
2020/09/10,01:30,0.692,0.984,0.627,1.204,0.874,0.392,0.685,0.643,-,CALM,��
2020/09/10,01:40,0.692,0.987,0.625,1.207,0.874,0.393,0.687,0.643,-,CALM,��
2020/09/10,01:50,0.692,0.985,0.625,1.206,0.874,0.392,0.685,0.644,���k��,0.9,��
2020/09/10,02:00,0.692,0.983,0.625,1.207,0.873,0.392,0.687,0.642,�k��,1.5,��
2020/09/10,02:10,0.692,0.985,0.625,1.207,0.874,0.393,0.685,0.643,���k��,2.3,��
2020/09/10,02:20,0.690,0.985,0.625,1.207,0.875,0.392,0.685,0.642,�k�k��,2.0,��
2020/09/10,02:30,0.693,0.986,0.627,1.208,0.874,0.393,0.687,0.643,�k,0.8,��
2020/09/10,02:40,0.690,0.985,0.626,1.206,0.875,0.393,0.685,0.643,�k�k��,1.2,��
2020/09/10,02:50,0.692,0.984,0.626,1.206,0.876,0.391,0.686,0.644,���k��,1.2,��
2020/09/10,03:00,0.692,0.987,0.626,1.206,0.876,0.392,0.685,0.643,�k�k��,0.6,��
2020/09/10,03:10,0.691,0.985,0.624,1.207,0.875,0.393,0.686,0.643,-,CALM,��
2020/09/10,03:20,0.692,0.984,0.627,1.208,0.873,0.392,0.686,0.644,���쐼,1.1,��
2020/09/10,03:30,0.692,0.983,0.626,1.208,0.872,0.394,0.686,0.644,�쐼,0.6,��
2020/09/10,03:40,0.693,0.984,0.626,1.206,0.876,0.393,0.686,0.645,-,CALM,��
2020/09/10,03:50,0.691,0.985,0.627,1.208,0.875,0.392,0.686,0.642,���k��,0.6,��
2020/09/10,04:00,0.692,0.984,0.626,1.205,0.874,0.393,0.686,0.645,��,0.6,��
2020/09/10,04:10,0.692,0.986,0.625,1.206,0.875,0.395,0.687,0.644,���쓌,0.9,��
2020/09/10,04:20,0.691,0.984,0.626,1.207,0.873,0.392,0.686,0.644,-,CALM,��
2020/09/10,04:30,0.692,0.986,0.626,1.205,0.874,0.393,0.685,0.643,�쓌,0.6,��
2020/09/10,04:40,0.694,0.983,0.624,1.206,0.873,0.393,0.686,0.644,��쓌,1.5,��
2020/09/10,04:50,0.692,0.983,0.626,1.208,0.874,0.391,0.685,0.643,��,2.2,��
2020/09/10,05:00,0.689,0.985,0.625,1.208,0.876,0.394,0.686,0.646,��쓌,2.6,��
2020/09/10,05:10,0.692,0.984,0.626,1.207,0.874,0.393,0.686,0.642,��쓌,1.7,��
2020/09/10,05:20,0.692,0.988,0.627,1.207,0.873,0.393,0.685,0.643,��,1.5,��
2020/09/10,05:30,0.694,0.984,0.625,1.205,0.876,0.394,0.686,0.642,��쓌,2.2,��
2020/09/10,05:40,0.691,0.983,0.626,1.206,0.875,0.393,0.686,0.644,��,2.2,��
2020/09/10,05:50,0.692,0.984,0.626,1.207,0.873,0.394,0.686,0.644,��,2.3,��
2020/09/10,06:00,0.693,0.985,0.627,1.208,0.874,0.394,0.685,0.643,��쓌,2.0,��
2020/09/10,06:10,0.692,0.986,0.625,1.210,0.873,0.392,0.686,0.644,��,1.9,��
2020/09/10,06:20,0.692,0.985,0.626,1.210,0.876,0.394,0.686,0.644,��,1.4,��
2020/09/10,06:30,0.692,0.987,0.625,1.211,0.875,0.393,0.686,0.645,��,1.5,��
2020/09/10,06:40,0.690,0.984,0.626,1.211,0.875,0.395,0.686,0.643,��쐼,1.5,��
2020/09/10,06:50,0.692,0.983,0.625,1.209,0.874,0.394,0.688,0.645,��,1.7,��
2020/09/10,07:00,0.694,0.984,0.627,1.207,0.874,0.393,0.686,0.645,��쓌,1.7,��
2020/09/10,07:10,0.693,0.985,0.625,1.209,0.875,0.395,0.686,0.645,�쓌,1.5,��
2020/09/10,07:20,0.690,0.983,0.626,1.208,0.874,0.393,0.687,0.645,��쓌,2.5,��
2020/09/10,07:30,0.694,0.985,0.626,1.207,0.877,0.394,0.687,0.645,��쓌,2.8,��
2020/09/10,07:40,0.693,0.982,0.626,1.208,0.875,0.393,0.687,0.643,��쓌,3.5,��
2020/09/10,07:50,0.694,0.984,0.626,1.209,0.875,0.391,0.686,0.644,��쓌,4.2,��
2020/09/10,08:00,0.693,0.982,0.624,1.209,0.876,0.392,0.687,0.645,��쓌,2.6,��
2020/09/10,08:10,0.693,0.983,0.627,1.207,0.874,0.391,0.687,0.645,��,2.6,��
2020/09/10,08:20,0.693,0.976,0.624,1.208,0.874,0.393,0.689,0.644,��쓌,3.0,��
2020/09/10,08:30,0.693,0.981,0.623,1.207,0.874,0.392,0.687,0.645,��쓌,4.1,��
2020/09/10,08:40,0.692,0.978,0.624,1.208,0.873,0.393,0.687,0.643,��쓌,3.5,��
2020/09/10,08:50,0.692,0.980,0.622,1.209,0.873,0.393,0.687,0.639,��쓌,3.8,��
2020/09/10,09:00,0.692,0.979,0.624,1.209,0.872,0.392,0.687,0.643,��쓌,4.5,��
2020/09/10,09:10,0.693,0.981,0.622,1.206,0.872,0.392,0.685,0.642,��쓌,5.0,��
2020/09/10,09:20,0.690,0.975,0.624,1.208,0.874,0.393,0.685,0.641,��쓌,6.3,��
2020/09/10,09:30,0.692,0.980,0.623,1.207,0.875,0.392,0.687,0.642,��쓌,7.6,��
2020/09/10,09:40,0.689,0.979,0.621,1.207,0.875,0.392,0.685,0.643,��쓌,6.8,��
2020/09/10,09:50,0.684,0.978,0.623,1.207,0.875,0.391,0.685,0.641,��쓌,6.1,��
2020/09/10,10:00,0.684,0.979,0.623,1.208,0.874,0.392,0.686,0.642,��쓌,7.3,��
2020/09/10,10:10,0.689,0.980,0.621,1.210,0.876,0.391,0.686,0.642,��쓌,6.3,��
2020/09/10,10:20,0.692,0.977,0.621,1.208,0.876,0.392,0.686,0.643,��쓌,7.8,��
2020/09/10,10:30,0.692,0.981,0.622,1.208,0.873,0.391,0.688,0.642,��쓌,6.2,��
2020/09/10,10:40,0.691,0.982,0.622,1.206,0.877,0.392,0.687,0.643,��쓌,7.5,��
2020/09/10,10:50,0.692,0.981,0.620,1.208,0.876,0.390,0.687,0.643,��쓌,5.6,��
2020/09/10,11:00,0.692,0.980,0.619,1.209,0.876,0.390,0.686,0.641,��,4.7,��
2020/09/10,11:10,0.691,0.978,0.621,1.209,0.875,0.390,0.686,0.641,��,6.4,��
2020/09/10,11:20,0.691,0.983,0.621,1.208,0.875,0.392,0.685,0.643,��쓌,7.0,��
2020/09/10,11:30,0.691,0.983,0.623,1.209,0.876,0.390,0.684,0.642,��,5.8,��
2020/09/10,11:40,0.692,0.981,0.622,1.208,0.878,0.390,0.687,0.640,��쓌,5.1,��
2020/09/10,11:50,0.692,0.982,0.621,1.210,0.875,0.390,0.689,0.643,��,5.6,��
2020/09/10,12:00,0.691,0.984,0.623,1.209,0.876,0.391,0.688,0.642,��쓌,7.1,��
2020/09/10,12:10,0.692,0.989,0.625,1.210,0.879,0.390,0.688,0.642,��,8.6,��
2020/09/10,12:20,0.692,0.988,0.623,1.209,0.879,0.391,0.687,0.642,��,7.7,��
2020/09/10,12:30,0.692,0.986,0.624,1.210,0.878,0.392,0.687,0.641,��,7.3,��
2020/09/10,12:40,0.691,0.986,0.626,1.208,0.878,0.393,0.688,0.643,��쓌,8.8,��
2020/09/10,12:50,0.689,0.986,0.626,1.211,0.878,0.392,0.686,0.642,��,9.3,��
2020/09/10,13:00,0.691,0.983,0.625,1.209,0.878,0.394,0.686,0.643,��,8.8,��
2020/09/10,13:10,0.693,0.986,0.625,1.210,0.877,0.392,0.689,0.642,��,7.8,��
2020/09/10,13:20,0.693,0.986,0.625,1.210,0.878,0.392,0.685,0.643,��,7.2,��
2020/09/10,13:30,0.693,0.986,0.625,1.211,0.877,0.391,0.686,0.643,��,7.8,��
2020/09/10,13:40,0.693,0.984,0.626,1.210,0.877,0.392,0.687,0.642,��,8.2,��
2020/09/10,13:50,0.693,0.984,0.628,1.209,0.879,0.392,0.687,0.642,��,7.6,��
2020/09/10,14:00,0.693,0.983,0.627,1.209,0.878,0.392,0.688,0.643,��,7.6,��
2020/09/10,14:10,0.693,0.983,0.625,1.209,0.880,0.393,0.686,0.643,��,8.7,��
2020/09/10,14:20,0.693,0.983,0.624,1.209,0.877,0.394,0.687,0.643,��,8.1,��
2020/09/10,14:30,0.695,0.985,0.625,1.209,0.879,0.393,0.687,0.642,��,7.2,��
2020/09/10,14:40,0.693,0.986,0.623,1.211,0.879,0.395,0.685,0.643,��,6.6,��
2020/09/10,14:50,0.694,0.988,0.623,1.210,0.879,0.393,0.687,0.643,��,8.0,��
2020/09/10,15:00,0.694,0.987,0.623,1.209,0.880,0.394,0.687,0.643,��,9.0,��
2020/09/10,15:10,0.694,0.988,0.625,1.209,0.881,0.395,0.685,0.643,��,9.3,��
2020/09/10,15:20,0.696,0.990,0.626,1.212,0.880,0.394,0.688,0.641,��,8.0,��
2020/09/10,15:30,0.695,0.991,0.625,1.211,0.880,0.393,0.688,0.643,��,8.6,��
2020/09/10,15:40,0.693,0.987,0.623,1.210,0.880,0.393,0.687,0.643,��,9.7,��
2020/09/10,15:50,0.693,0.990,0.625,1.209,0.881,0.394,0.686,0.643,��,10.2,��
2020/09/10,16:00,0.694,0.990,0.624,1.208,0.878,0.392,0.688,0.642,��쐼,7.7,��
2020/09/10,16:10,0.695,0.990,0.625,1.209,0.881,0.393,0.687,0.644,��,8.9,��
2020/09/10,16:20,0.695,0.989,0.624,1.208,0.879,0.392,0.685,0.643,��,7.2,�L
2020/09/10,16:30,0.693,0.990,0.625,1.211,0.880,0.392,0.690,0.645,��,7.7,�L
2020/09/10,16:40,0.693,0.988,0.625,1.208,0.880,0.392,0.688,0.644,��,6.9,��
2020/09/10,16:50,0.695,0.987,0.625,1.208,0.879,0.390,0.687,0.644,��,6.5,�L
2020/09/10,17:00,0.695,0.988,0.627,1.207,0.878,0.392,0.686,0.641,��,6.5,�L
2020/09/10,17:10,0.693,0.990,0.625,1.212,0.878,0.393,0.688,0.644,��,4.5,�L
2020/09/10,17:20,0.695,0.991,0.625,1.212,0.879,0.394,0.687,0.642,��,5.0,��
2020/09/10,17:30,0.694,0.991,0.625,1.208,0.879,0.393,0.684,0.644,��,5.4,��
2020/09/10,17:40,0.693,0.990,0.626,1.208,0.882,0.395,0.686,0.641,��,6.6,��
2020/09/10,17:50,0.692,0.991,0.624,1.213,0.880,0.393,0.687,0.642,��,8.1,��
2020/09/10,18:00,0.692,0.990,0.625,1.212,0.880,0.393,0.687,0.642,��,7.3,��
2020/09/10,18:10,0.690,0.992,0.625,1.210,0.877,0.393,0.688,0.642,��,7.1,��
2020/09/10,18:20,0.692,0.992,0.626,1.210,0.878,0.393,0.685,0.641,��,6.7,��
2020/09/10,18:30,0.693,0.990,0.626,1.210,0.877,0.393,0.686,0.642,��,6.9,��
2020/09/10,18:40,0.693,0.989,0.627,1.212,0.881,0.393,0.687,0.642,��,6.9,��
2020/09/10,18:50,0.692,0.993,0.625,1.210,0.879,0.394,0.686,0.642,��,6.3,��
2020/09/10,19:00,0.693,0.991,0.625,1.212,0.878,0.393,0.685,0.643,��,6.3,��
2020/09/10,19:10,0.694,0.992,0.625,1.210,0.878,0.392,0.686,0.642,��,5.7,��
2020/09/10,19:20,0.693,0.991,0.627,1.210,0.879,0.393,0.686,0.641,��,5.8,��
2020/09/10,19:30,0.692,0.992,0.625,1.210,0.879,0.392,0.688,0.641,��,5.2,��
2020/09/10,19:40,0.692,0.990,0.626,1.211,0.878,0.394,0.688,0.642,��,5.7,��
2020/09/10,19:50,0.692,0.992,0.626,1.212,0.880,0.393,0.686,0.643,��,6.6,��
2020/09/10,20:00,0.692,0.992,0.625,1.210,0.879,0.392,0.685,0.645,��,5.3,��
2020/09/10,20:10,0.694,0.991,0.624,1.209,0.881,0.392,0.688,0.642,��,6.3,��
2020/09/10,20:20,0.695,0.991,0.626,1.210,0.879,0.394,0.688,0.643,��,5.3,��
2020/09/10,20:30,0.691,0.992,0.626,1.212,0.878,0.394,0.686,0.642,��,5.2,��
2020/09/10,20:40,0.692,0.991,0.625,1.210,0.877,0.392,0.686,0.643,��,4.3,��
2020/09/10,20:50,0.694,0.990,0.625,1.211,0.879,0.393,0.687,0.642,��,4.3,��
2020/09/10,21:00,0.692,0.991,0.626,1.213,0.880,0.394,0.688,0.642,��,4.8,��
2020/09/10,21:10,0.694,0.989,0.626,1.212,0.880,0.393,0.687,0.642,��,4.2,��
2020/09/10,21:20,0.691,0.990,0.625,1.210,0.880,0.395,0.686,0.643,��,4.8,��
2020/09/10,21:30,0.691,0.990,0.626,1.212,0.880,0.393,0.686,0.642,��,4.0,��
2020/09/10,21:40,0.692,0.989,0.625,1.213,0.882,0.392,0.688,0.644,�쐼,2.2,��
2020/09/10,21:50,0.694,0.990,0.626,1.211,0.882,0.393,0.686,0.642,�쐼,2.0,��
2020/09/10,22:00,0.693,0.990,0.626,1.210,0.880,0.393,0.687,0.643,�쐼,2.0,��
2020/09/10,22:10,0.694,0.988,0.626,1.213,0.880,0.393,0.688,0.641,��쐼,2.5,��
2020/09/10,22:20,0.697,0.991,0.624,1.213,0.879,0.393,0.687,0.643,��쐼,2.0,��
2020/09/10,22:30,0.696,0.990,0.627,1.211,0.880,0.394,0.687,0.642,�쐼,1.9,��
2020/09/10,22:40,0.694,0.990,0.625,1.210,0.881,0.393,0.688,0.643,��쐼,1.9,��
2020/09/10,22:50,0.694,0.992,0.626,1.213,0.882,0.394,0.688,0.642,��쐼,1.5,��
2020/09/10,23:00,0.694,0.995,0.626,1.210,0.881,0.393,0.687,0.644,��,0.9,��
2020/09/10,23:10,0.694,0.992,0.627,1.213,0.881,0.394,0.688,0.643,��쓌,1.2,��
2020/09/10,23:20,0.697,0.991,0.628,1.212,0.879,0.393,0.686,0.643,��쐼,1.5,��
2020/09/10,23:30,0.696,0.993,0.626,1.211,0.881,0.395,0.686,0.643,��쐼,1.4,��
2020/09/10,23:40,0.695,0.990,0.627,1.215,0.880,0.394,0.687,0.643,��,2.5,��
2020/09/10,23:50,0.693,0.992,0.626,1.211,0.878,0.393,0.688,0.643,��쐼,1.7,��
